Location: Unspecified
(0.0000°N, 0.0000°E)
Time: 23:38:09
(UTC+00:00)

S-56A Canister/Altair - Pass Details

Date: 05 October 2020
Orbit: 633 x 2499 km, 38.9° (Epoch: 28 October)

Event Time Altitude Azimuth Distance (km) Brightness Sun altitude
Rises 09:09:18 0° 232° (SW) 4,104 11.0 50.0°
Reaches altitude 10° 09:11:42 10° 233° (SW) 3,346 10.6 50.6°
Maximum altitude 09:20:29 80° 318° (NW) 1,778 10.2 52.8°
Drops below altitude 10° 09:33:43 10° 45° (NE) 4,846 12.0 56.0°
Sets 09:37:56 0° 46° (NE) 6,010 12.4 57.1°
